EW4229 Weather Reports


time (UTC)temp
C
wind
direction
speed
KPH
gust
KPH
rain 1hr
cm
rain 24hr
cm
rain mn
cm
humidity
%
barometer
mb
20260504081555 3 290 0.0 0.0 0.00 0.00 0.00 80 1014.4
20260504043029 6 300 0.0 1.6 0.00 0.00 0.00 68 1014.3
20260504041528 5 305 0.0 0.0 0.00 0.00 0.00 73 1014.2
20260504040025 5 308 0.0 0.0 0.00 0.00 0.00 71 1014.3
20260504033017 -17 0.0 0.0 0.00 0.00 0.00 1014.1
20260504031514 -17 0.0 0.0 0.00 0.00 0.00 1014.0
20260504030008 -17 0.0 0.0 0.00 0.00 0.00 1013.9
20260504023009 7 250 0.0 0.0 0.00 0.00 0.00 68 1014.0
20260504021507 7 243 0.0 0.0 0.00 0.00 0.00 67 1014.0
20260504020009 8 260 0.0 0.0 0.00 0.00 0.00 65 1014.0
20260504013009 7 301 0.0 0.0 0.00 0.00 0.00 66 1013.8
20260504011505 7 304 0.0 0.0 0.00 0.00 0.00 65 1013.7
20260504010004 8 303 0.0 0.0 0.00 0.00 0.00 60 1013.5
20260504003004 10 300 0.0 1.6 0.00 0.00 0.00 55 1013.3
20260504001504 11 300 0.0 4.8 0.00 0.00 0.00 48 1013.2
20260504000004 12 310 1.6 4.8 0.00 0.00 0.00 44 1013.0
20260503233001 -17 0.0 0.0 0.00 0.00 0.00 1012.8
20260503231558 -17 0.0 0.0 0.00 0.00 0.00 1012.7
20260503230053 -17 0.0 0.0 0.00 0.00 0.00 1012.6
20260503223053 15 301 3.2 16.1 0.00 0.00 0.00 35 1012.6
20260503221552 15 306 8.0 17.7 0.00 0.00 0.00 35 1012.6
20260503220054 15 318 12.9 22.5 0.00 0.00 0.00 34 1012.7
20260503213056 15 320 9.7 22.5 0.00 0.00 0.00 37 1012.7
20260503211548 15 337 9.7 19.3 0.00 0.00 0.00 37 1012.5
20260503210100 15 268 6.4 17.7 0.00 0.00 0.00 35 1012.6
20260503203053 14 294 16.1 25.7 0.00 0.00 0.00 45 1012.6
20260503201546 13 299 8.0 20.9 0.00 0.00 0.00 44 1012.9
20260503200049 14 294 8.0 25.7 0.00 0.00 0.00 46 1012.9
20260503193048 14 328 4.8 17.7 0.00 0.00 0.00 36 1013.3
20260503191542 13 314 9.7 25.7 0.00 0.00 0.00 37 1013.5
20260503190041 14 302 17.7 30.6 0.00 0.00 0.00 36 1013.5
20260503183055 13 304 9.7 24.1 0.00 0.00 0.00 36 1014.1
20260503181541 13 332 12.9 22.5 0.00 0.00 0.00 36 1014.0
20260503180037 13 343 9.7 20.9 0.00 0.00 0.00 40 1014.2
20260503173027 12 209 9.7 19.3 0.00 0.00 0.00 42 1014.4
20260503171524 11 258 11.3 19.3 0.00 0.00 0.00 40 1014.6